Time,TemperatureF,DewpointF,PressureIn,WindDirection,WindDirectionDegrees,WindSpeedMPH,WindSpeedGustMPH,Humidity,HourlyPrecipIn,Conditions,Clouds,dailyrainin,SoftwareType,DateUTC
2013-05-10 00:02:00,48.3,44.6,29.19,NNE,22,4.8,4.8,87,0.00,,---,0.00,VWS V13.01,2013-05-10 05:02:00,
2013-05-10 00:08:00,48.3,44.6,29.19,North,0,19.2,19.2,87,0.00,,---,0.00,VWS V13.01,2013-05-10 05:08:00,
2013-05-10 00:13:00,48.3,44.6,29.19,North,0,8.0,15.2,87,0.00,,---,0.00,VWS V13.01,2013-05-10 05:13:00,
2013-05-10 00:18:00,48.3,44.6,29.19,NNE,22,3.0,8.0,87,0.00,,---,0.00,VWS V13.01,2013-05-10 05:18:00,
2013-05-10 00:23:00,48.3,44.6,29.20,NNE,22,12.4,12.4,87,0.00,,---,0.00,VWS V13.01,2013-05-10 05:23:00,
2013-05-10 00:28:00,48.2,44.5,29.20,North,0,9.2,9.2,87,0.00,,---,0.00,VWS V13.01,2013-05-10 05:28:00,
2013-05-10 00:33:00,48.2,44.5,29.19,NE,45,8.8,11.0,87,0.00,,---,0.00,VWS V13.01,2013-05-10 05:33:00,
2013-05-10 00:38:00,48.0,44.3,29.20,NNE,22,11.6,11.6,87,0.00,,---,0.00,VWS V13.01,2013-05-10 05:38:00,
2013-05-10 00:43:00,48.0,44.3,29.20,NNE,22,12.4,12.4,87,0.00,,---,0.00,VWS V13.01,2013-05-10 05:43:00,
2013-05-10 00:48:00,48.0,44.3,29.20,NNE,22,15.2,15.2,87,0.00,,---,0.00,VWS V13.01,2013-05-10 05:48:00,
2013-05-10 00:53:00,48.0,44.3,29.20,NNE,22,14.2,14.2,87,0.00,,---,0.00,VWS V13.01,2013-05-10 05:53:00,
2013-05-10 00:58:00,48.0,44.3,29.20,NNE,22,4.8,10.2,87,0.00,,---,0.00,VWS V13.01,2013-05-10 05:58:00,
2013-05-10 01:03:00,48.0,44.3,29.20,NNE,22,12.4,12.4,87,0.00,,---,0.00,VWS V13.01,2013-05-10 06:03:00,
2013-05-10 01:08:00,48.0,44.3,29.20,NE,45,11.0,11.0,87,0.00,,---,0.00,VWS V13.01,2013-05-10 06:08:00,
2013-05-10 01:13:00,47.8,44.1,29.19,NNE,22,4.0,7.0,87,0.00,,---,0.00,VWS V13.01,2013-05-10 06:13:00,
2013-05-10 01:18:00,47.8,44.1,29.19,North,0,20.0,20.0,87,0.00,,---,0.00,VWS V13.01,2013-05-10 06:18:00,
2013-05-10 01:23:00,47.6,43.6,29.19,North,0,23.2,23.2,86,0.00,,---,0.00,VWS V13.01,2013-05-10 06:23:00,
2013-05-10 01:28:00,47.4,43.4,29.19,NNE,22,8.4,8.4,86,0.00,,---,0.00,VWS V13.01,2013-05-10 06:28:00,
2013-05-10 01:33:00,47.4,43.4,29.20,NNE,22,6.2,6.2,86,0.00,,---,0.00,VWS V13.01,2013-05-10 06:33:00,
2013-05-10 01:38:00,47.4,43.4,29.19,NNE,22,7.0,7.0,86,0.00,,---,0.00,VWS V13.01,2013-05-10 06:38:00,
2013-05-10 01:43:00,47.3,43.3,29.19,NNW,338,12.0,12.0,86,0.00,,---,0.00,VWS V13.01,2013-05-10 06:43:00,
2013-05-10 01:48:00,47.1,43.1,29.20,NNE,22,7.6,15.6,86,0.00,,---,0.00,VWS V13.01,2013-05-10 06:48:00,
2013-05-10 01:53:00,47.1,43.1,29.19,North,0,8.0,8.0,86,0.00,,---,0.00,VWS V13.01,2013-05-10 06:53:00,
2013-05-10 01:58:00,47.1,43.1,29.19,NE,45,21.0,21.4,86,0.00,,---,0.00,VWS V13.01,2013-05-10 06:58:00,
2013-05-10 02:03:00,47.1,43.1,29.19,NNE,22,14.2,14.2,86,0.00,,---,0.00,VWS V13.01,2013-05-10 07:03:00,
2013-05-10 02:08:00,46.9,42.9,29.20,North,0,16.0,16.0,86,0.00,,---,0.00,VWS V13.01,2013-05-10 07:08:00,
2013-05-10 02:13:00,46.9,42.9,29.19,NNE,22,12.0,14.2,86,0.00,,---,0.00,VWS V13.01,2013-05-10 07:13:00,
2013-05-10 02:18:00,46.7,42.7,29.19,NNE,22,9.8,9.8,86,0.00,,---,0.00,VWS V13.01,2013-05-10 07:18:00,
2013-05-10 02:23:00,46.7,42.7,29.19,NNE,22,14.2,14.2,86,0.00,,---,0.00,VWS V13.01,2013-05-10 07:23:00,
2013-05-10 02:28:00,46.5,42.5,29.19,North,0,8.4,13.8,86,0.00,,---,0.00,VWS V13.01,2013-05-10 07:28:00,
2013-05-10 02:33:00,46.5,42.5,29.20,NNE,22,15.2,15.2,86,0.00,,---,0.00,VWS V13.01,2013-05-10 07:33:00,
2013-05-10 02:38:00,46.5,42.5,29.19,NNE,22,4.8,4.8,86,0.00,,---,0.00,VWS V13.01,2013-05-10 07:38:00,
2013-05-10 02:43:00,46.2,42.2,29.20,NE,45,3.0,15.6,86,0.00,,---,0.00,VWS V13.01,2013-05-10 07:43:00,
2013-05-10 02:48:00,46.2,42.2,29.20,NNE,22,8.8,8.8,86,0.00,,---,0.00,VWS V13.01,2013-05-10 07:48:00,
2013-05-10 02:53:00,46.2,42.2,29.19,North,0,24.0,24.0,86,0.00,,---,0.00,VWS V13.01,2013-05-10 07:53:00,
2013-05-10 02:58:00,46.0,42.0,29.19,NNE,22,0.0,8.0,86,0.00,,---,0.00,VWS V13.01,2013-05-10 07:58:00,
2013-05-10 03:03:00,46.0,42.0,29.20,NNE,22,12.0,12.0,86,0.00,,---,0.00,VWS V13.01,2013-05-10 08:03:00,
2013-05-10 03:08:00,46.0,42.0,29.19,North,0,29.4,29.4,86,0.00,,---,0.00,VWS V13.01,2013-05-10 08:08:00,
2013-05-10 03:13:00,46.0,42.0,29.19,North,0,0.0,1.2,86,0.00,,---,0.00,VWS V13.01,2013-05-10 08:13:00,
2013-05-10 03:18:00,46.0,42.0,29.20,NNE,22,13.8,13.8,86,0.00,,---,0.00,VWS V13.01,2013-05-10 08:18:00,
2013-05-10 03:23:00,45.8,41.9,29.20,NNE,22,11.0,11.0,86,0.00,,---,0.00,VWS V13.01,2013-05-10 08:23:00,
2013-05-10 03:29:00,45.6,41.7,29.20,NNE,22,9.8,9.8,86,0.00,,---,0.00,VWS V13.01,2013-05-10 08:29:00,
2013-05-10 03:34:00,45.5,41.6,29.20,North,0,6.2,6.2,86,0.00,,---,0.00,VWS V13.01,2013-05-10 08:34:00,
2013-05-10 03:39:00,45.3,41.4,29.20,NNE,22,0.0,12.4,86,0.00,,---,0.00,VWS V13.01,2013-05-10 08:39:00,
2013-05-10 03:44:00,45.3,41.4,29.20,NNE,22,13.8,13.8,86,0.00,,---,0.00,VWS V13.01,2013-05-10 08:44:00,
2013-05-10 03:49:00,45.3,41.4,29.20,NNE,22,14.2,14.2,86,0.00,,---,0.00,VWS V13.01,2013-05-10 08:49:00,
2013-05-10 03:54:00,45.1,41.2,29.20,NNE,22,3.0,9.8,86,0.00,,---,0.00,VWS V13.01,2013-05-10 08:54:00,
2013-05-10 03:59:00,45.1,41.2,29.20,NNE,22,3.0,3.0,86,0.00,,---,0.00,VWS V13.01,2013-05-10 08:59:00,
2013-05-10 04:04:00,44.9,41.0,29.20,North,0,15.2,15.2,86,0.00,,---,0.00,VWS V13.01,2013-05-10 09:04:00,
2013-05-10 04:09:00,44.9,41.0,29.20,NNE,22,5.2,11.6,86,0.00,,---,0.00,VWS V13.01,2013-05-10 09:09:00,
2013-05-10 04:14:00,44.9,41.0,29.20,NNE,22,1.2,1.2,86,0.00,,---,0.00,VWS V13.01,2013-05-10 09:14:00,
2013-05-10 04:19:00,44.9,41.0,29.20,NNW,338,26.2,26.2,86,0.00,,---,0.00,VWS V13.01,2013-05-10 09:19:00,
2013-05-10 04:24:00,44.7,40.8,29.20,North,0,8.4,30.8,86,0.00,,---,0.00,VWS V13.01,2013-05-10 09:24:00,
2013-05-10 04:29:00,44.7,40.8,29.21,NE,45,3.0,3.0,86,0.00,,---,0.00,VWS V13.01,2013-05-10 09:29:00,
2013-05-10 04:34:00,44.6,40.7,29.20,NNE,22,8.4,8.4,86,0.00,,---,0.00,VWS V13.01,2013-05-10 09:34:00,
2013-05-10 04:39:00,44.6,40.7,29.21,North,0,8.0,15.6,86,0.00,,---,0.00,VWS V13.01,2013-05-10 09:39:00,
2013-05-10 04:44:00,44.6,40.7,29.21,NNE,22,5.2,5.2,86,0.00,,---,0.00,VWS V13.01,2013-05-10 09:44:00,
2013-05-10 04:49:00,44.4,40.5,29.21,NNE,22,8.8,8.8,86,0.00,,---,0.00,VWS V13.01,2013-05-10 09:49:00,
2013-05-10 04:54:00,44.4,40.5,29.21,North,0,20.0,20.0,86,0.00,,---,0.00,VWS V13.01,2013-05-10 09:54:00,
2013-05-10 04:59:00,44.4,40.5,29.21,NNE,22,13.4,13.4,86,0.00,,---,0.00,VWS V13.01,2013-05-10 09:59:00,
2013-05-10 05:04:00,44.2,40.3,29.21,North,0,8.4,8.4,86,0.00,,---,0.00,VWS V13.01,2013-05-10 10:04:00,
2013-05-10 05:09:00,44.2,40.3,29.22,North,0,2.2,14.2,86,0.00,,---,0.00,VWS V13.01,2013-05-10 10:09:00,
2013-05-10 05:14:00,44.0,40.1,29.21,NE,45,11.6,11.6,86,0.00,,---,0.00,VWS V13.01,2013-05-10 10:14:00,
2013-05-10 05:19:00,44.0,40.1,29.22,NNE,22,9.2,9.2,86,0.00,,---,0.00,VWS V13.01,2013-05-10 10:19:00,
2013-05-10 05:24:00,43.8,39.9,29.22,NNE,22,10.2,10.2,86,0.00,,---,0.00,VWS V13.01,2013-05-10 10:24:00,
2013-05-10 05:29:00,43.8,39.9,29.22,NNE,22,4.0,4.0,86,0.00,,---,0.00,VWS V13.01,2013-05-10 10:29:00,
2013-05-10 05:34:00,43.8,39.9,29.22,NNE,22,9.8,9.8,86,0.00,,---,0.00,VWS V13.01,2013-05-10 10:34:00,
2013-05-10 05:39:00,43.7,39.5,29.22,NNE,22,12.8,12.8,85,0.00,,---,0.00,VWS V13.01,2013-05-10 10:39:00,
2013-05-10 05:44:00,43.7,39.5,29.22,NNE,22,10.6,10.6,85,0.00,,---,0.00,VWS V13.01,2013-05-10 10:44:00,
2013-05-10 05:49:00,43.7,39.5,29.23,North,0,12.0,12.0,85,0.00,,---,0.00,VWS V13.01,2013-05-10 10:49:00,
2013-05-10 05:54:00,43.7,39.5,29.23,North,0,13.4,13.4,85,0.00,,---,0.00,VWS V13.01,2013-05-10 10:54:00,
2013-05-10 05:59:00,43.5,39.3,29.23,North,0,18.6,18.6,85,0.00,,---,0.00,VWS V13.01,2013-05-10 10:59:00,
2013-05-10 06:04:00,43.5,39.3,29.23,NNE,22,17.0,17.0,85,0.00,,---,0.00,VWS V13.01,2013-05-10 11:04:00,
2013-05-10 06:09:00,43.5,39.3,29.23,NNE,22,6.2,7.6,85,0.00,,---,0.00,VWS V13.01,2013-05-10 11:09:00,
2013-05-10 06:14:00,43.5,39.3,29.23,NNE,22,12.0,12.0,85,0.00,,---,0.00,VWS V13.01,2013-05-10 11:14:00,
2013-05-10 06:19:00,43.3,39.1,29.22,NE,45,14.6,14.6,85,0.00,,---,0.00,VWS V13.01,2013-05-10 11:19:00,
2013-05-10 06:24:00,43.3,39.1,29.23,NNE,22,10.6,10.6,85,0.00,,---,0.00,VWS V13.01,2013-05-10 11:24:00,
2013-05-10 06:29:00,43.3,39.1,29.23,North,0,7.6,7.6,85,0.00,,---,0.00,VWS V13.01,2013-05-10 11:29:00,
2013-05-10 06:34:00,43.3,39.1,29.23,NNE,22,8.0,8.0,85,0.00,,---,0.00,VWS V13.01,2013-05-10 11:34:00,
2013-05-10 06:39:00,43.1,38.9,29.23,NNE,22,8.8,8.8,85,0.00,,---,0.00,VWS V13.01,2013-05-10 11:39:00,
2013-05-10 06:44:00,42.9,38.7,29.24,North,0,5.2,5.2,85,0.00,,---,0.00,VWS V13.01,2013-05-10 11:44:00,
2013-05-10 06:49:00,42.9,38.7,29.24,NNE,22,8.0,8.0,85,0.00,,---,0.00,VWS V13.01,2013-05-10 11:49:00,
2013-05-10 06:54:00,42.9,38.7,29.24,NNE,22,10.6,10.6,85,0.00,,---,0.00,VWS V13.01,2013-05-10 11:54:00,
2013-05-10 06:59:00,42.9,38.4,29.24,NNE,22,5.2,5.2,84,0.00,,---,0.00,VWS V13.01,2013-05-10 11:59:00,
2013-05-10 07:04:00,42.9,38.4,29.24,NNE,22,4.0,4.0,84,0.00,,---,0.00,VWS V13.01,2013-05-10 12:04:00,
2013-05-10 07:09:00,42.9,38.4,29.24,NNE,22,8.0,9.8,84,0.00,,---,0.00,VWS V13.01,2013-05-10 12:09:00,
2013-05-10 07:14:00,42.9,38.4,29.23,North,0,12.8,12.8,84,0.00,,---,0.00,VWS V13.01,2013-05-10 12:14:00,
2013-05-10 07:19:00,42.9,38.4,29.23,NNE,22,8.8,8.8,84,0.00,,---,0.00,VWS V13.01,2013-05-10 12:19:00,
2013-05-10 07:24:00,43.1,38.6,29.23,NNE,22,0.0,8.4,84,0.00,,---,0.00,VWS V13.01,2013-05-10 12:24:00,
2013-05-10 07:29:00,43.1,38.6,29.23,NNE,22,0.0,0.0,84,0.00,,---,0.00,VWS V13.01,2013-05-10 12:29:00,
2013-05-10 07:34:00,43.3,38.8,29.23,NNE,22,6.6,6.6,84,0.00,,---,0.00,VWS V13.01,2013-05-10 12:34:00,
2013-05-10 07:39:00,43.5,39.0,29.24,NNE,22,2.2,6.2,84,0.00,,---,0.00,VWS V13.01,2013-05-10 12:39:00,
2013-05-10 07:44:00,43.7,39.2,29.24,NNE,22,4.0,4.0,84,0.00,,---,0.00,VWS V13.01,2013-05-10 12:44:00,
2013-05-10 07:49:00,43.7,39.2,29.24,NE,45,6.6,6.6,84,0.00,,---,0.00,VWS V13.01,2013-05-10 12:49:00,
2013-05-10 07:54:00,43.8,39.0,29.24,NNE,22,6.6,15.2,83,0.00,,---,0.00,VWS V13.01,2013-05-10 12:54:00,
2013-05-10 07:59:00,43.8,39.0,29.24,North,0,0.0,0.0,83,0.00,,---,0.00,VWS V13.01,2013-05-10 12:59:00,
2013-05-10 08:04:00,43.8,38.7,29.24,NE,45,8.4,8.4,82,0.00,,---,0.00,VWS V13.01,2013-05-10 13:04:00,
2013-05-10 08:09:00,43.8,38.7,29.24,NNE,22,14.6,14.6,82,0.00,,---,0.00,VWS V13.01,2013-05-10 13:09:00,
2013-05-10 08:14:00,43.8,38.7,29.24,North,0,10.2,10.2,82,0.00,,---,0.00,VWS V13.01,2013-05-10 13:14:00,
2013-05-10 08:19:00,44.0,38.9,29.25,North,0,18.2,18.2,82,0.00,,---,0.00,VWS V13.01,2013-05-10 13:19:00,
2013-05-10 08:24:00,44.0,38.5,29.24,North,0,21.8,21.8,81,0.00,,---,0.00,VWS V13.01,2013-05-10 13:24:00,
2013-05-10 08:29:00,44.2,38.8,29.24,NNE,22,6.2,6.2,81,0.00,,---,0.00,VWS V13.01,2013-05-10 13:29:00,
2013-05-10 08:34:00,44.4,38.9,29.24,ENE,68,7.0,7.0,81,0.00,,---,0.00,VWS V13.01,2013-05-10 13:34:00,
2013-05-10 08:39:00,44.7,39.2,29.24,NNE,22,16.4,16.4,81,0.00,,---,0.00,VWS V13.01,2013-05-10 13:39:00,
2013-05-10 08:44:00,44.9,39.1,29.25,NNE,22,0.0,0.0,80,0.00,,---,0.00,VWS V13.01,2013-05-10 13:44:00,
2013-05-10 08:49:00,45.1,39.3,29.25,ENE,68,9.2,9.2,80,0.00,,---,0.00,VWS V13.01,2013-05-10 13:49:00,
2013-05-10 08:54:00,45.5,39.7,29.25,NNE,22,12.4,12.4,80,0.00,,---,0.00,VWS V13.01,2013-05-10 13:54:00,
2013-05-10 08:59:00,45.6,39.5,29.25,NE,45,12.4,12.4,79,0.00,,---,0.00,VWS V13.01,2013-05-10 13:59:00,
2013-05-10 09:04:00,45.6,39.5,29.25,NNE,22,14.6,14.6,79,0.00,,---,0.00,VWS V13.01,2013-05-10 14:04:00,
2013-05-10 09:09:00,46.0,39.9,29.25,NNE,22,7.0,7.0,79,0.00,,---,0.00,VWS V13.01,2013-05-10 14:09:00,
2013-05-10 09:14:00,46.0,39.9,29.25,NNE,22,12.4,12.4,79,0.00,,---,0.00,VWS V13.01,2013-05-10 14:14:00,
2013-05-10 09:19:00,46.2,40.1,29.25,NE,45,15.6,15.6,79,0.00,,---,0.00,VWS V13.01,2013-05-10 14:19:00,
2013-05-10 09:24:00,46.2,40.1,29.25,North,0,0.0,6.6,79,0.00,,---,0.00,VWS V13.01,2013-05-10 14:24:00,
2013-05-10 09:29:00,46.5,40.3,29.25,NE,45,5.2,5.2,79,0.00,,---,0.00,VWS V13.01,2013-05-10 14:29:00,
2013-05-10 09:34:00,46.9,40.7,29.25,North,0,15.6,15.6,79,0.00,,---,0.00,VWS V13.01,2013-05-10 14:34:00,
2013-05-10 09:39:00,47.3,41.1,29.25,NNE,22,11.0,11.0,79,0.00,,---,0.00,VWS V13.01,2013-05-10 14:39:00,
2013-05-10 09:44:00,47.4,41.2,29.25,North,0,5.2,5.2,79,0.00,,---,0.00,VWS V13.01,2013-05-10 14:44:00,
2013-05-10 09:49:00,47.8,41.6,29.25,NNE,22,8.8,8.8,79,0.00,,---,0.00,VWS V13.01,2013-05-10 14:49:00,
2013-05-10 09:54:00,48.0,41.8,29.25,NNE,22,12.8,12.8,79,0.00,,---,0.00,VWS V13.01,2013-05-10 14:54:00,
2013-05-10 09:59:00,48.3,42.1,29.25,NNE,22,13.8,13.8,79,0.00,,---,0.00,VWS V13.01,2013-05-10 14:59:00,
2013-05-10 10:04:00,48.7,42.5,29.25,NNE,22,0.0,0.0,79,0.00,,---,0.00,VWS V13.01,2013-05-10 15:04:00,
2013-05-10 10:09:00,49.2,43.0,29.25,NE,45,0.0,0.0,79,0.00,,---,0.00,VWS V13.01,2013-05-10 15:09:00,
2013-05-10 10:15:00,49.8,43.2,29.25,NNE,22,5.2,9.2,78,0.00,,---,0.00,VWS V13.01,2013-05-10 15:15:00,
2013-05-10 10:21:00,50.1,43.5,29.25,NNE,22,4.0,4.0,78,0.00,,---,0.00,VWS V13.01,2013-05-10 15:21:00,
2013-05-10 10:26:00,50.5,43.9,29.25,NNW,338,12.4,12.4,78,0.00,,---,0.00,VWS V13.01,2013-05-10 15:26:00,
2013-05-10 10:31:00,50.7,43.8,29.25,North,0,10.2,10.2,77,0.00,,---,0.00,VWS V13.01,2013-05-10 15:31:00,
2013-05-10 10:36:00,50.7,43.8,29.24,North,0,8.8,8.8,77,0.00,,---,0.00,VWS V13.01,2013-05-10 15:36:00,
2013-05-10 10:41:00,51.2,44.2,29.25,NE,45,0.0,13.4,77,0.00,,---,0.00,VWS V13.01,2013-05-10 15:41:00,
2013-05-10 10:46:00,51.6,44.6,29.25,NE,45,5.8,5.8,77,0.00,,---,0.00,VWS V13.01,2013-05-10 15:46:00,
2013-05-10 10:51:00,51.8,44.8,29.25,NNE,22,0.0,0.0,77,0.00,,---,0.00,VWS V13.01,2013-05-10 15:51:00,
2013-05-10 10:56:00,52.3,45.0,29.25,NNE,22,15.2,15.2,76,0.00,,---,0.00,VWS V13.01,2013-05-10 15:56:00,
2013-05-10 11:01:00,52.5,45.2,29.25,NNE,22,5.2,5.2,76,0.00,,---,0.00,VWS V13.01,2013-05-10 16:01:00,
2013-05-10 11:06:00,52.8,45.8,29.25,NNE,22,12.8,12.8,77,0.00,,---,0.00,VWS V13.01,2013-05-10 16:06:00,
2013-05-10 11:11:00,53.4,46.0,29.25,North,0,4.4,9.2,76,0.00,,---,0.00,VWS V13.01,2013-05-10 16:11:00,
2013-05-10 11:16:00,53.7,46.3,29.24,NNE,22,11.6,11.6,76,0.00,,---,0.00,VWS V13.01,2013-05-10 16:16:00,
2013-05-10 11:21:00,53.9,46.5,29.25,NNE,22,0.0,0.0,76,0.00,,---,0.00,VWS V13.01,2013-05-10 16:21:00,
2013-05-10 11:26:00,54.5,47.1,29.25,NNE,22,0.0,13.4,76,0.00,,---,0.00,VWS V13.01,2013-05-10 16:26:00,
2013-05-10 11:31:00,54.8,47.4,29.25,North,0,12.8,12.8,76,0.00,,---,0.00,VWS V13.01,2013-05-10 16:31:00,
2013-05-10 11:36:00,55.2,47.4,29.25,NNE,22,0.0,0.0,75,0.00,,---,0.00,VWS V13.01,2013-05-10 16:36:00,
2013-05-10 11:41:00,56.1,48.3,29.25,NNE,22,7.6,7.6,75,0.00,,---,0.00,VWS V13.01,2013-05-10 16:41:00,
2013-05-10 11:46:00,56.4,47.9,29.25,NE,45,2.6,2.6,73,0.00,,---,0.00,VWS V13.01,2013-05-10 16:46:00,
2013-05-10 11:51:00,56.8,48.2,29.25,North,0,5.2,5.2,73,0.00,,---,0.00,VWS V13.01,2013-05-10 16:51:00,
2013-05-10 11:56:00,56.8,48.2,29.25,NNE,22,0.0,0.0,73,0.00,,---,0.00,VWS V13.01,2013-05-10 16:56:00,
2013-05-10 12:01:00,57.3,49.1,29.25,North,0,17.8,17.8,74,0.00,,---,0.00,VWS V13.01,2013-05-10 17:01:00,
2013-05-10 12:06:00,57.5,48.6,29.25,North,0,13.8,13.8,72,0.00,,---,0.00,VWS V13.01,2013-05-10 17:06:00,
2013-05-10 12:11:00,57.5,48.6,29.25,North,0,0.0,0.0,72,0.00,,---,0.00,VWS V13.01,2013-05-10 17:11:00,
2013-05-10 12:17:00,57.9,48.9,29.25,North,0,0.0,11.0,72,0.00,,---,0.00,VWS V13.01,2013-05-10 17:17:00,
2013-05-10 12:22:00,58.1,49.1,29.25,North,0,12.8,12.8,72,0.00,,---,0.00,VWS V13.01,2013-05-10 17:22:00,
2013-05-10 12:27:00,58.1,48.8,29.25,North,0,0.0,0.0,71,0.00,,---,0.00,VWS V13.01,2013-05-10 17:27:00,
2013-05-10 12:32:00,57.9,48.6,29.25,North,0,1.2,6.6,71,0.00,,---,0.00,VWS V13.01,2013-05-10 17:32:00,
2013-05-10 12:37:00,57.9,48.6,29.25,NNE,22,7.0,20.4,71,0.00,,---,0.00,VWS V13.01,2013-05-10 17:37:00,
2013-05-10 12:42:00,58.1,49.1,29.25,North,0,6.2,6.2,72,0.00,,---,0.00,VWS V13.01,2013-05-10 17:42:00,
2013-05-10 12:47:00,58.4,49.4,29.25,North,0,3.0,10.2,72,0.00,,---,0.00,VWS V13.01,2013-05-10 17:47:00,
2013-05-10 12:52:00,58.6,49.2,29.25,NNW,338,13.4,15.2,71,0.00,,---,0.00,VWS V13.01,2013-05-10 17:52:00,
2013-05-10 12:57:00,58.8,49.4,29.25,North,0,0.0,0.0,71,0.00,,---,0.00,VWS V13.01,2013-05-10 17:57:00,
2013-05-10 13:02:00,58.8,49.0,29.25,NNE,22,4.0,8.0,70,0.00,,---,0.00,VWS V13.01,2013-05-10 18:02:00,
2013-05-10 13:07:00,58.8,49.0,29.25,NW,315,15.6,15.6,70,0.00,,---,0.00,VWS V13.01,2013-05-10 18:07:00,
2013-05-10 13:12:00,58.8,49.0,29.25,North,0,10.6,10.6,70,0.00,,---,0.00,VWS V13.01,2013-05-10 18:12:00,
2013-05-10 13:17:00,58.8,49.0,29.25,NNW,338,6.6,6.6,70,0.00,,---,0.00,VWS V13.01,2013-05-10 18:17:00,
2013-05-10 13:22:00,58.8,48.7,29.25,NW,315,3.0,12.0,69,0.00,,---,0.00,VWS V13.01,2013-05-10 18:22:00,
2013-05-10 13:28:00,58.8,48.7,29.24,NNW,338,6.6,6.6,69,0.00,,---,0.00,VWS V13.01,2013-05-10 18:28:00,
2013-05-10 13:33:00,59.3,49.5,29.25,North,0,2.2,2.2,70,0.00,,---,0.00,VWS V13.01,2013-05-10 18:33:00,
2013-05-10 13:38:00,59.1,49.0,29.25,North,0,12.0,12.0,69,0.00,,---,0.00,VWS V13.01,2013-05-10 18:38:00,
2013-05-10 13:43:00,59.5,49.3,29.25,NNE,22,7.6,7.6,69,0.00,,---,0.00,VWS V13.01,2013-05-10 18:43:00,
2013-05-10 13:48:00,59.7,49.5,29.25,North,0,12.4,12.4,69,0.00,,---,0.00,VWS V13.01,2013-05-10 18:48:00,
2013-05-10 13:53:00,59.9,49.7,29.25,North,0,5.2,5.2,69,0.00,,---,0.00,VWS V13.01,2013-05-10 18:53:00,
2013-05-10 13:58:00,60.0,49.4,29.25,NNW,338,6.6,6.6,68,0.00,,---,0.00,VWS V13.01,2013-05-10 18:58:00,
2013-05-10 14:03:00,60.4,49.4,29.24,NNE,22,6.6,6.6,67,0.00,,---,0.00,VWS V13.01,2013-05-10 19:03:00,
2013-05-10 14:08:00,60.4,49.4,29.25,North,0,7.0,7.0,67,0.00,,---,0.00,VWS V13.01,2013-05-10 19:08:00,
2013-05-10 14:14:00,60.6,49.6,29.25,North,0,13.8,13.8,67,0.00,,---,0.00,VWS V13.01,2013-05-10 19:14:00,
2013-05-10 14:20:00,60.6,49.2,29.25,NNW,338,5.8,5.8,66,0.00,,---,0.00,VWS V13.01,2013-05-10 19:20:00,
2013-05-10 14:25:00,60.6,49.2,29.25,NNW,338,10.6,10.6,66,0.00,,---,0.00,VWS V13.01,2013-05-10 19:25:00,
2013-05-10 14:30:00,60.9,49.5,29.25,North,0,0.0,0.0,66,0.00,,---,0.00,VWS V13.01,2013-05-10 19:30:00,
2013-05-10 14:35:00,60.9,49.1,29.25,North,0,2.6,2.6,65,0.00,,---,0.00,VWS V13.01,2013-05-10 19:35:00,
2013-05-10 14:40:00,61.1,49.3,29.24,NNE,22,0.0,0.0,65,0.00,,---,0.00,VWS V13.01,2013-05-10 19:40:00,
2013-05-10 14:45:00,61.5,49.6,29.24,NNE,22,0.0,4.0,65,0.00,,---,0.00,VWS V13.01,2013-05-10 19:45:00,
2013-05-10 14:50:00,61.5,49.2,29.23,NNE,22,0.0,0.0,64,0.00,,---,0.00,VWS V13.01,2013-05-10 19:50:00,
2013-05-10 14:55:00,61.8,49.1,29.23,NNE,22,0.0,0.0,63,0.00,,---,0.00,VWS V13.01,2013-05-10 19:55:00,
2013-05-10 15:00:00,61.8,48.7,29.24,NW,315,0.0,8.4,62,0.00,,---,0.00,VWS V13.01,2013-05-10 20:00:00,
2013-05-10 15:05:00,61.8,49.1,29.23,NW,315,26.8,26.8,63,0.00,,---,0.00,VWS V13.01,2013-05-10 20:05:00,
2013-05-10 15:10:00,61.8,49.1,29.23,North,0,8.8,8.8,63,0.00,,---,0.00,VWS V13.01,2013-05-10 20:10:00,
2013-05-10 15:15:00,61.8,49.1,29.23,NNE,22,0.0,0.0,63,0.00,,---,0.00,VWS V13.01,2013-05-10 20:15:00,
2013-05-10 15:20:00,62.2,49.5,29.23,NNE,22,6.2,6.2,63,0.00,,---,0.00,VWS V13.01,2013-05-10 20:20:00,
2013-05-10 15:25:00,62.2,49.5,29.23,North,0,5.2,5.2,63,0.00,,---,0.00,VWS V13.01,2013-05-10 20:25:00,
2013-05-10 15:30:00,61.8,49.1,29.23,North,0,0.0,16.4,63,0.00,,---,0.00,VWS V13.01,2013-05-10 20:30:00,
2013-05-10 15:35:00,61.7,49.0,29.23,North,0,0.0,0.0,63,0.00,,---,0.00,VWS V13.01,2013-05-10 20:35:00,
2013-05-10 15:40:00,61.7,48.6,29.23,NNE,22,12.0,12.0,62,0.00,,---,0.00,VWS V13.01,2013-05-10 20:40:00,
2013-05-10 15:45:00,61.5,48.8,29.23,North,0,0.0,2.2,63,0.00,,---,0.00,VWS V13.01,2013-05-10 20:45:00,
2013-05-10 15:50:00,61.7,49.0,29.22,NNE,22,2.6,2.6,63,0.00,,---,0.00,VWS V13.01,2013-05-10 20:50:00,
2013-05-10 15:55:00,62.4,49.7,29.22,NNW,338,0.0,0.0,63,0.00,,---,0.00,VWS V13.01,2013-05-10 20:55:00,
2013-05-10 16:00:00,62.7,49.9,29.21,North,0,0.0,0.0,63,0.00,,---,0.00,VWS V13.01,2013-05-10 21:00:00,
2013-05-10 16:05:00,63.1,49.9,29.21,NNE,22,0.0,0.0,62,0.00,,---,0.00,VWS V13.01,2013-05-10 21:05:00,
2013-05-10 16:10:00,63.1,49.0,29.20,NNW,338,4.8,4.8,60,0.00,,---,0.00,VWS V13.01,2013-05-10 21:10:00,
2013-05-10 16:15:00,63.6,49.9,29.21,NW,315,12.4,12.4,61,0.00,,---,0.00,VWS V13.01,2013-05-10 21:15:00,
2013-05-10 16:20:00,63.6,49.5,29.21,NNW,338,0.0,0.0,60,0.00,,---,0.00,VWS V13.01,2013-05-10 21:20:00,
2013-05-10 16:25:00,63.8,49.7,29.20,NNW,338,0.0,0.0,60,0.00,,---,0.00,VWS V13.01,2013-05-10 21:25:00,
2013-05-10 16:30:00,64.2,49.6,29.21,North,0,0.0,4.8,59,0.00,,---,0.00,VWS V13.01,2013-05-10 21:30:00,
2013-05-10 16:35:00,64.4,49.8,29.20,NNW,338,0.0,0.0,59,0.00,,---,0.00,VWS V13.01,2013-05-10 21:35:00,
2013-05-10 16:40:00,64.7,50.1,29.20,North,0,4.0,4.0,59,0.00,,---,0.00,VWS V13.01,2013-05-10 21:40:00,
2013-05-10 16:45:00,64.9,50.2,29.20,West,270,5.2,5.2,59,0.00,,---,0.00,VWS V13.01,2013-05-10 21:45:00,
2013-05-10 16:50:00,64.9,50.2,29.20,NNW,338,3.4,3.4,59,0.00,,---,0.00,VWS V13.01,2013-05-10 21:50:00,
2013-05-10 16:55:00,64.9,49.3,29.20,NNW,338,0.0,0.0,57,0.00,,---,0.00,VWS V13.01,2013-05-10 21:55:00,
2013-05-10 16:58:00,64.9,49.8,29.20,NNW,338,0.0,0.0,58,0.00,,---,0.00,VWS V13.01,2013-05-10 21:58:00,
2013-05-10 16:59:00,64.9,49.8,29.20,NNW,338,0.0,0.0,58,0.00,,---,0.00,VWS V13.01,2013-05-10 21:59:00,
2013-05-10 17:01:00,64.9,49.8,29.20,NNW,338,0.0,0.0,58,0.00,,---,0.00,VWS V13.01,2013-05-10 22:01:00,
2013-05-10 17:02:00,65.1,50.0,29.20,NNW,338,0.0,0.0,58,0.00,,---,0.00,VWS V13.01,2013-05-10 22:02:00,
2013-05-10 17:05:00,65.1,50.0,29.19,NNW,338,0.0,0.0,58,0.00,,---,0.00,VWS V13.01,2013-05-10 22:05:00,
2013-05-10 17:10:00,65.1,50.0,29.20,NNE,22,0.0,0.0,58,0.00,,---,0.00,VWS V13.01,2013-05-10 22:10:00,
2013-05-10 17:15:00,65.1,50.0,29.20,North,0,0.0,0.0,58,0.00,,---,0.00,VWS V13.01,2013-05-10 22:15:00,
2013-05-10 17:20:00,65.3,50.2,29.19,NNE,22,2.2,2.2,58,0.00,,---,0.00,VWS V13.01,2013-05-10 22:20:00,
2013-05-10 17:25:00,65.4,49.8,29.19,NNE,22,0.0,0.0,57,0.00,,---,0.00,VWS V13.01,2013-05-10 22:25:00,
2013-05-10 17:30:00,65.3,49.7,29.19,NNE,22,0.0,0.0,57,0.00,,---,0.00,VWS V13.01,2013-05-10 22:30:00,
2013-05-10 17:35:00,65.1,49.5,29.19,WNW,292,0.0,0.0,57,0.00,,---,0.00,VWS V13.01,2013-05-10 22:35:00,
2013-05-10 17:40:00,65.1,49.5,29.19,WNW,292,0.0,0.0,57,0.00,,---,0.00,VWS V13.01,2013-05-10 22:40:00,
2013-05-10 17:45:00,65.1,49.5,29.19,WNW,292,0.0,0.0,57,0.00,,---,0.00,VWS V13.01,2013-05-10 22:45:00,
2013-05-10 17:50:00,64.9,48.8,29.19,NW,315,0.0,0.0,56,0.00,,---,0.00,VWS V13.01,2013-05-10 22:50:00,
2013-05-10 17:55:00,65.1,49.5,29.19,NW,315,0.0,0.0,57,0.00,,---,0.00,VWS V13.01,2013-05-10 22:55:00,
2013-05-10 18:00:00,65.8,50.2,29.19,NW,315,0.0,0.0,57,0.00,,---,0.00,VWS V13.01,2013-05-10 23:00:00,
2013-05-10 18:05:00,66.3,50.6,29.18,NW,315,0.0,0.0,57,0.00,,---,0.00,VWS V13.01,2013-05-10 23:05:00,
2013-05-10 18:10:00,66.9,50.2,29.18,WNW,292,0.0,0.0,55,0.00,,---,0.00,VWS V13.01,2013-05-10 23:10:00,
2013-05-10 18:15:00,67.6,50.4,29.18,WNW,292,0.0,0.0,54,0.00,,---,0.00,VWS V13.01,2013-05-10 23:15:00,
2013-05-10 18:20:00,67.8,50.1,29.18,NW,315,0.0,0.0,53,0.00,,---,0.00,VWS V13.01,2013-05-10 23:20:00,
2013-05-10 18:25:00,67.6,49.9,29.18,NW,315,0.0,0.0,53,0.00,,---,0.00,VWS V13.01,2013-05-10 23:25:00,
2013-05-10 18:30:00,66.9,48.7,29.18,NW,315,0.0,0.0,52,0.00,,---,0.00,VWS V13.01,2013-05-10 23:30:00,
2013-05-10 18:35:00,66.9,49.2,29.18,NW,315,0.0,0.0,53,0.00,,---,0.00,VWS V13.01,2013-05-10 23:35:00,
2013-05-10 18:40:00,67.1,48.9,29.18,WNW,292,4.0,4.0,52,0.00,,---,0.00,VWS V13.01,2013-05-10 23:40:00,
2013-05-10 18:45:00,66.9,48.7,29.19,SW,225,16.0,16.0,52,0.00,,---,0.00,VWS V13.01,2013-05-10 23:45:00,
2013-05-10 18:50:00,66.9,48.2,29.19,WSW,248,0.0,0.0,51,0.00,,---,0.00,VWS V13.01,2013-05-10 23:50:00,
2013-05-10 18:55:00,66.9,48.2,29.19,WNW,292,0.0,0.0,51,0.00,,---,0.00,VWS V13.01,2013-05-10 23:55:00,
2013-05-10 19:00:00,66.2,48.1,29.19,West,270,0.0,3.4,52,0.00,,---,0.00,VWS V13.01,2013-05-11 00:00:00,
2013-05-10 19:05:00,66.0,47.9,29.18,NNW,338,0.0,0.0,52,0.00,,---,0.00,VWS V13.01,2013-05-11 00:05:00,
2013-05-10 19:10:00,65.4,47.3,29.18,NNW,338,0.0,0.0,52,0.00,,---,0.00,VWS V13.01,2013-05-11 00:10:00,
2013-05-10 19:15:00,64.9,47.4,29.18,NNW,338,0.0,0.0,53,0.00,,---,0.00,VWS V13.01,2013-05-11 00:15:00,
2013-05-10 19:20:00,64.9,47.9,29.18,NNW,338,7.0,7.0,54,0.00,,---,0.00,VWS V13.01,2013-05-11 00:20:00,
2013-05-10 19:25:00,64.5,47.5,29.18,NNW,338,0.0,0.0,54,0.00,,---,0.00,VWS V13.01,2013-05-11 00:25:00,
2013-05-10 19:30:00,64.5,47.5,29.18,NNW,338,0.0,0.0,54,0.00,,---,0.00,VWS V13.01,2013-05-11 00:30:00,
2013-05-10 19:35:00,64.5,47.5,29.18,NNW,338,0.0,0.0,54,0.00,,---,0.00,VWS V13.01,2013-05-11 00:35:00,
2013-05-10 19:40:00,64.2,47.2,29.18,NNW,338,0.0,0.0,54,0.00,,---,0.00,VWS V13.01,2013-05-11 00:40:00,
2013-05-10 19:45:00,64.2,47.2,29.18,NNW,338,0.0,0.0,54,0.00,,---,0.00,VWS V13.01,2013-05-11 00:45:00,
2013-05-10 19:50:00,63.6,46.7,29.18,NNW,338,0.0,0.0,54,0.00,,---,0.00,VWS V13.01,2013-05-11 00:50:00,
2013-05-10 19:55:00,63.5,47.1,29.18,NNW,338,0.0,0.0,55,0.00,,---,0.00,VWS V13.01,2013-05-11 00:55:00,
2013-05-10 20:00:00,63.1,46.7,29.18,NNW,338,0.0,0.0,55,0.00,,---,0.00,VWS V13.01,2013-05-11 01:00:00,
2013-05-10 20:05:00,62.7,45.8,29.17,NNW,338,0.0,0.0,54,0.00,,---,0.00,VWS V13.01,2013-05-11 01:05:00,
2013-05-10 20:11:00,62.4,46.0,29.18,NNW,338,0.0,0.0,55,0.00,,---,0.00,VWS V13.01,2013-05-11 01:11:00,
2013-05-10 20:16:00,62.2,45.8,29.17,NNW,338,0.0,0.0,55,0.00,,---,0.00,VWS V13.01,2013-05-11 01:16:00,
2013-05-10 20:21:00,61.8,45.5,29.18,NNW,338,0.0,0.0,55,0.00,,---,0.00,VWS V13.01,2013-05-11 01:21:00,
2013-05-10 20:26:00,61.7,45.9,29.18,NNW,338,0.0,0.0,56,0.00,,---,0.00,VWS V13.01,2013-05-11 01:26:00,
2013-05-10 20:31:00,61.5,45.7,29.18,NNW,338,0.0,0.0,56,0.00,,---,0.00,VWS V13.01,2013-05-11 01:31:00,
2013-05-10 20:36:00,61.1,45.8,29.18,NNW,338,0.0,0.0,57,0.00,,---,0.00,VWS V13.01,2013-05-11 01:36:00,
2013-05-10 20:41:00,60.6,45.3,29.18,NNW,338,0.0,0.0,57,0.00,,---,0.00,VWS V13.01,2013-05-11 01:41:00,
2013-05-10 20:46:00,60.4,45.1,29.18,NNW,338,0.0,0.0,57,0.00,,---,0.00,VWS V13.01,2013-05-11 01:46:00,
2013-05-10 20:51:00,59.9,45.1,29.17,NNW,338,0.0,0.0,58,0.00,,---,0.00,VWS V13.01,2013-05-11 01:51:00,
2013-05-10 20:56:00,59.5,44.7,29.17,NNW,338,0.0,0.0,58,0.00,,---,0.00,VWS V13.01,2013-05-11 01:56:00,
2013-05-10 21:01:00,59.1,44.8,29.18,NNW,338,0.0,0.0,59,0.00,,---,0.00,VWS V13.01,2013-05-11 02:01:00,
2013-05-10 21:06:00,58.8,44.5,29.18,NNW,338,0.0,0.0,59,0.00,,---,0.00,VWS V13.01,2013-05-11 02:06:00,
2013-05-10 21:11:00,58.4,44.1,29.18,NNW,338,0.0,0.0,59,0.00,,---,0.00,VWS V13.01,2013-05-11 02:11:00,
2013-05-10 21:16:00,58.1,44.3,29.18,NNW,338,0.0,0.0,60,0.00,,---,0.00,VWS V13.01,2013-05-11 02:16:00,
2013-05-10 21:21:00,57.7,43.9,29.18,NNW,338,0.0,0.0,60,0.00,,---,0.00,VWS V13.01,2013-05-11 02:21:00,
2013-05-10 21:26:00,57.3,44.0,29.18,NNW,338,0.0,0.0,61,0.00,,---,0.00,VWS V13.01,2013-05-11 02:26:00,
2013-05-10 21:31:00,57.0,43.7,29.18,NNW,338,0.0,0.0,61,0.00,,---,0.00,VWS V13.01,2013-05-11 02:31:00,
2013-05-10 21:36:00,56.4,43.1,29.18,NNW,338,0.0,0.0,61,0.00,,---,0.00,VWS V13.01,2013-05-11 02:36:00,
2013-05-10 21:41:00,56.3,43.5,29.19,NNW,338,0.0,0.0,62,0.00,,---,0.00,VWS V13.01,2013-05-11 02:41:00,
2013-05-10 21:46:00,55.9,42.7,29.18,NNW,338,0.0,0.0,61,0.00,,---,0.00,VWS V13.01,2013-05-11 02:46:00,
2013-05-10 21:51:00,55.5,42.7,29.18,NNW,338,0.0,0.0,62,0.00,,---,0.00,VWS V13.01,2013-05-11 02:51:00,
2013-05-10 21:56:00,55.2,42.4,29.18,NNW,338,0.0,0.0,62,0.00,,---,0.00,VWS V13.01,2013-05-11 02:56:00,
2013-05-10 22:01:00,55.0,42.7,29.18,NNW,338,0.0,0.0,63,0.00,,---,0.00,VWS V13.01,2013-05-11 03:01:00,
2013-05-10 22:06:00,54.6,42.3,29.18,NNW,338,0.0,0.0,63,0.00,,---,0.00,VWS V13.01,2013-05-11 03:06:00,
2013-05-10 22:11:00,54.3,42.4,29.18,NNW,338,0.0,0.0,64,0.00,,---,0.00,VWS V13.01,2013-05-11 03:11:00,
2013-05-10 22:16:00,54.1,42.2,29.18,NNW,338,0.0,0.0,64,0.00,,---,0.00,VWS V13.01,2013-05-11 03:16:00,
2013-05-10 22:21:00,53.7,41.8,29.18,NNW,338,0.0,0.0,64,0.00,,---,0.00,VWS V13.01,2013-05-11 03:21:00,
2013-05-10 22:26:00,53.6,42.1,29.18,NNW,338,0.0,0.0,65,0.00,,---,0.00,VWS V13.01,2013-05-11 03:26:00,
2013-05-10 22:31:00,53.4,41.9,29.18,NNW,338,0.0,0.0,65,0.00,,---,0.00,VWS V13.01,2013-05-11 03:31:00,
2013-05-10 22:36:00,53.0,41.6,29.18,NNW,338,0.0,0.0,65,0.00,,---,0.00,VWS V13.01,2013-05-11 03:36:00,
2013-05-10 22:41:00,52.8,41.4,29.18,NNW,338,0.0,0.0,65,0.00,,---,0.00,VWS V13.01,2013-05-11 03:41:00,
2013-05-10 22:46:00,52.8,41.8,29.18,NNW,338,0.0,0.0,66,0.00,,---,0.00,VWS V13.01,2013-05-11 03:46:00,
2013-05-10 22:51:00,52.5,41.5,29.18,NNW,338,0.0,0.0,66,0.00,,---,0.00,VWS V13.01,2013-05-11 03:51:00,
2013-05-10 22:56:00,52.3,41.3,29.18,NNW,338,0.0,0.0,66,0.00,,---,0.00,VWS V13.01,2013-05-11 03:56:00,
2013-05-10 23:01:00,52.3,41.3,29.18,NNW,338,0.0,0.0,66,0.00,,---,0.00,VWS V13.01,2013-05-11 04:01:00,
2013-05-10 23:04:00,52.1,41.5,29.18,NNW,338,0.0,0.0,67,0.00,,---,0.00,VWS V13.01,2013-05-11 04:04:00,
2013-05-10 23:06:00,51.9,41.3,29.18,NNW,338,0.0,0.0,67,0.00,,---,0.00,VWS V13.01,2013-05-11 04:06:00,
2013-05-10 23:11:00,51.9,41.3,29.18,NNW,338,0.0,0.0,67,0.00,,---,0.00,VWS V13.01,2013-05-11 04:11:00,
2013-05-10 23:16:00,51.8,41.2,29.18,NNW,338,0.0,0.0,67,0.00,,---,0.00,VWS V13.01,2013-05-11 04:16:00,
2013-05-10 23:21:00,51.6,41.0,29.18,NNW,338,0.0,0.0,67,0.00,,---,0.00,VWS V13.01,2013-05-11 04:21:00,
2013-05-10 23:26:00,51.4,40.8,29.18,NNW,338,0.0,0.0,67,0.00,,---,0.00,VWS V13.01,2013-05-11 04:26:00,
2013-05-10 23:31:00,51.2,40.6,29.18,WNW,292,0.0,0.0,67,0.00,,---,0.00,VWS V13.01,2013-05-11 04:31:00,
2013-05-10 23:36:00,51.0,40.4,29.17,SW,225,0.0,0.0,67,0.00,,---,0.00,VWS V13.01,2013-05-11 04:36:00,
2013-05-10 23:41:00,51.0,40.4,29.17,SW,225,0.0,0.0,67,0.00,,---,0.00,VWS V13.01,2013-05-11 04:41:00,
2013-05-10 23:46:00,51.0,40.4,29.16,SW,225,0.0,0.0,67,0.00,,---,0.00,VWS V13.01,2013-05-11 04:46:00,
2013-05-10 23:51:00,50.9,40.3,29.16,SW,225,0.0,0.0,67,0.00,,---,0.00,VWS V13.01,2013-05-11 04:51:00,
2013-05-10 23:56:00,50.9,40.3,29.16,SW,225,0.0,0.0,67,0.00,,---,0.00,VWS V13.01,2013-05-11 04:56:00,